Location: Eymir
(36.7333°N, 29.7833°E)
Time: 18:44:44
(UTC+00:00)

Cosmos 1023 Rocket - Pass Details

Date: 14 January 2026
Orbit: 731 x 768 km, 74.1° (Epoch: 17 February)

Event Time Altitude Azimuth Distance (km) Brightness Sun altitude
Rises 04:01:34 0° 201° (SSW) 3,138 7.6 -14.1°
Reaches altitude 10° 04:03:54 10° 203° (SSW) 2,221 6.8 -13.7°
Maximum altitude 04:08:55 73° 288° (WNW) 769 4.3 -12.7°
Drops below altitude 10° 04:13:59 10° 14° (NNE) 2,250 6.9 -11.8°
Sets 04:16:22 0° 16° (NNE) 3,181 7.7 -11.3°
